User: anonymous   Login
Location: Unspecified
(0.0000°N, 0.0000°E)
Time: 11:38:02
(UTC+00:00)
Language:

SBIRS GEO 4 (USA 282) - Orbit

View from above orbital plane
View from above orbital plane
View from above satellite
View from above satellite

Ground track
Ground track

The orbit data is extracted from the following two-line orbital elements,

1 43162U 18009A   20051.89768868 -.00000305 +00000-0 +00000-0 0  9991
2 43162 005.1784 317.4359 0001486 023.3748 271.6024 01.00271519007691
Epoch (UTC): 20 February 2020 21:32:40
Eccentricity: 0.0001486
inclination: 5.1784°
perigee height: 35780 km
apogee height: 35792 km
right ascension of ascending node: 317.4359°
argument of perigee: 23.3748°
revolutions per day: 1.00271519
mean anomaly at epoch: 271.6024°
orbit number at epoch: 769

The dashed part of the orbit path shows where the satellite is in the earth's shadow,  

DLR